Regional Weather Roundup
Issued by NWS

Home | Current Version | Previous Version | Graphics & Text | Print | Product List | Glossary On
Versions: 1 2 3 4 5 6 7 8 9 10 11 12 13 14 15 16 17 18 19 20 21 22 23 24 25 26 27 28 29 30 31 32 33 34 35 36 37 38 39 40 41 42 43 44 45 46 47 48 49 50
000
ASUS45 KSLC 291510
RWRUT

UTAH REGIONAL WEATHER ROUNDUP
NATIONAL WEATHER SERVICE SALT LAKE CITY UT
900 AM MDT TUE JUL 29 2014

UTZ001>011-023>025-291600-

NORTHERN UTAH

CITY           SKY/WX    TMP DP  RH WIND       PRES   REMARKS
HILL AFB       LGT RAIN  64  58  81 E10       30.23S
LOGAN          LGT RAIN  65  62  90 NW5       30.23R
OGDEN          CLOUDY    68  59  73 S6        30.21R
PROVO AIRPORT  PTSUNNY   70  61  73 CALM      30.23R
SALT LAKE CITY LGT RAIN  68  64  87 VRB5      30.20R
VERNAL         CLOUDY    65  58  78 CALM      30.29S
WENDOVER       CLOUDY    68  61  77 SE5       30.22S
HEBER CITY     PTSUNNY   63  59  88 CALM      30.28S
WEST JORDAN    CLOUDY    68  66  94 CALM      30.22S

$$

UTZ012>022-026-027-291600-

SOUTHERN UTAH

CITY           SKY/WX    TMP DP  RH WIND       PRES   REMARKS
BRYCE CANYON   SUNNY     63  53  70 CALM      30.44R
CEDAR CITY     MOSUNNY   71  54  54 SW6       30.28R
MILFORD        PTSUNNY   74  54  49 SW12      30.23R
MOAB/CYNLANDS  MOSUNNY   69  62  78 E7        30.24S
PRICE          PTSUNNY   65  56  72 CALM      30.32S
ST GEORGE      PTSUNNY   81  55  41 SE6       30.13S
KANAB            N/A     70  55  60 NE3       30.30S

$$

REGIONAL REPORTS     COLORADO/ARIZONA

CITY           SKY/WX    TMP DP  RH WIND       PRES   REMARKS
CRAIG, CO      CLOUDY    60  57  89 SW7       30.35S
GRAND JUNCTION CLOUDY    65  60  84 SE7       30.29R
RIFLE          LGT RAIN  63  60  90 E3        30.33S
MONTROSE       PTSUNNY   63  60  90 N6        30.36R
CORTEZ         CLOUDY    63  61  93 CALM      30.35S
PAGE, AZ       SUNNY     79  53  40 CALM      30.22R
GRAND CANYON   SUNNY     70  52  52 CALM      30.39R
KINGMAN        SUNNY     80  57  45 CALM      30.15R
FLAGSTAFF      SUNNY     68  52  56 CALM      30.42S

$$

REGIONAL REPORTS    NEVADA/IDAHO/WYOMING

CITY           SKY/WX    TMP DP  RH WIND       PRES   REMARKS
LAS VEGAS, NV  MOSUNNY   84  62  47 S3        30.03R
ELY            CLOUDY    62  55  77 CALM      30.33R
ELKO           CLOUDY    67  54  63 CALM      30.25R
POCATELLO, ID  PTSUNNY   65  63  93 NW3       30.23R
BURLEY         MOSUNNY   68  58  70 E3        30.18S
EVANSTON, WY   LGT RAIN  58  57  97 SE5       30.37R FOG
ROCK SPRINGS   CLOUDY    66  46  48 NE7       30.35S

$$



USA.gov is the U.S. government's official web portal to all federal, state and local government web resources and services.